Flag for U.S.A. Weather past 2 weeks in Shreveport, Louisiana, U.S.A.

Now
78 °F

Broken clouds.


Feels Like: 80 °F
Forecast: 69 / 83 °F
Wind: 5 mph from Southwest

Location: Shreveport Regional Airport

Current Time: May 30, 2015 at 3:55:44 PM

Latest Report: May 30, 2015 at 2:56 PM


Visibility: 10 mi

Pressure: 30.01 "Hg

Humidity: 71%

Dew point: 68 °F

Location of ShreveportLocation

Historic Weather in Shreveport — Graph

°F

Shreveport temperature yesterday

Maximum temperature yesterday: 86 °F (at 12:56 PM)
Minimum temperature yesterday: 70 °F (at 4:56 AM)
Average temperature yesterday: 79 °F

Past Weeks' High & Low Weather Summary

 TemperatureHumidityPressure
High88 °F (May 20, 4:56 PM)100% (May 18, 12:59 PM)30.22 "Hg (May 18, 12:59 PM)
Low55 °F (May 22, 4:56 AM)52% (May 20, 4:56 PM)29.85 "Hg (May 16, 6:56 PM)
Average74 °F81%30.02 "Hg
* Reported May 15 2:56 PM — May 30 2:56 PM, Shreveport, Weather by CustomWeather, © 2015

Note: Actual official high and low records may vary slightly from our data, if they occured in-between our weather recording intervals... More about our weather records

Advertising

Shreveport weather history for previous 24 hours

 ConditionsComfort  
Time TempWeatherWind HumidityBarometerVisibility
2:56 PM
Sat, May 30
78 °FBroken clouds.5 mph71%30.01 "Hg10 mi
1:56 PM77 °FBroken clouds.7 mph88%29.99 "Hg10 mi
12:56 PM71 °FMore clouds than sun.8 mph93%30.01 "Hg10 mi
11:56 AM69 °FCloudy.6 mph96%30.06 "Hg10 mi
10:56 AM69 °FThunderstorms. Fog.N/A90%30.09 "Hg0 mi
9:56 AM77 °FThunderstorms. Cloudy.8 mph82%30.04 "Hg10 mi
8:56 AM76 °FThunderstorms. Mostly cloudy.5 mph85%30.03 "Hg10 mi
7:56 AM76 °FThunderstorms. Partly sunny.3 mph88%30.01 "Hg10 mi
6:56 AM74 °FPartly cloudy.5 mph91%30.00 "Hg9 mi
5:56 AM74 °FPassing clouds.8 mph91%29.98 "Hg10 mi
4:56 AM73 °FPassing clouds.7 mph94%29.96 "Hg10 mi
3:56 AM73 °FOvercast.6 mph94%29.96 "Hg10 mi
2:56 AM74 °FPartly cloudy.6 mph91%29.96 "Hg10 mi
1:56 AM75 °FPassing clouds.5 mph88%29.97 "Hg10 mi
12:56 AM76 °FPassing clouds.7 mph85%29.96 "Hg10 mi
11:56 PM
Fri, May 29
77 °FPassing clouds.9 mph85%29.96 "Hg10 mi
10:56 PM77 °FPassing clouds.7 mph82%29.96 "Hg10 mi
9:56 PM77 °FPassing clouds.5 mph82%29.95 "Hg10 mi
8:56 PM80 °FPartly sunny.7 mph71%29.92 "Hg10 mi
7:56 PM82 °FBroken clouds.9 mph70%29.90 "Hg10 mi
6:56 PM84 °FBroken clouds.8 mph63%29.88 "Hg10 mi
5:56 PM85 °FBroken clouds.17 mph61%29.88 "Hg10 mi
4:56 PM86 °FBroken clouds.20 mph57%29.88 "Hg10 mi
3:56 PM85 °FCloudy.17 mph57%29.89 "Hg10 mi
Weather by CustomWeather, © 2015

See weather overviewHow to use our weather pages